Regional Weather Roundup
Issued by NWS

Home | Current Version | Previous Version | Text Only | Print | Product List | Glossary On
Versions: 1 2 3 4 5 6 7 8 9 10 11 12 13 14 15 16 17 18 19 20 21 22 23 24 25 26 27
000
ASUS45 KTFX 270310
RWRMT
MONTANA REGIONAL WEATHER ROUNDUP
NATIONAL WEATHER SERVICE GREAT FALLS MT
900 PM MDT MON JUN 26 2017

NOTE: "FAIR" INDICATES FEW OR NO CLOUDS BELOW 12000 FEET WITH NO
SIGNIFICANT WEATHER AND/OR OBSTRUCTIONS TO VISIBILITY.

MTZ001>007-043-270400-
WEST OF THE DIVIDE

CITY           SKY/WX    TMP DP  RH WIND       PRES   REMARKS
KALISPELL      CLOUDY    72  62  71 SW6       29.75F
MISSOULA       CLOUDY    78  45  30 W8        29.79F
BUTTE          CLOUDY    79  34  19 W21G39    29.98R
MULLAN PASS    CLOUDY    65  45  48 VRB3      29.98F
ANACONDA         N/A     79  36  21 W17G25    29.92R
DEER LODGE       N/A     79  37  22 S10G31    29.91R
EUREKA           N/A     79  50  36 CALM      29.72R
HAMILTON         N/A     79  43  27 NE17      29.84R
$$

MTZ008-052>055-270400-
SOUTHWEST MONTANA

CITY           SKY/WX    TMP DP  RH WIND       PRES   REMARKS
BOZEMAN        PTCLDY    78  42  27 SE8       29.83S
DILLON         CLOUDY    74  38  27 W16G24    29.93R
W YELLOWSTONE  CLOUDY    64  37  36 S5        30.07F
ENNIS          CLEAR     73  34  23 SE12      29.97F
THREE FORKS      N/A     80  43  27 SW10      29.83S
$$

MTZ009-010-012-014-046-048-049-054-270400-
EAST SLOPES AND CENTRAL MONTANA

CITY           SKY/WX    TMP DP  RH WIND       PRES   REMARKS
CUT BANK       PTCLDY    74  44  34 W16       29.77F
GREAT FALLS    CLOUDY    77  45  32 NE7       29.76R
MALMSTROM AFB  CLEAR     77  47  34 E3        29.75R
HELENA         CLOUDY    86  39  19 NW10      29.76S
CHOTEAU          N/A     75  50  41 E6        29.80F
$$

MTZ011-013-016-021-045-047-050-051-270400-
NORTH CENTRAL MONTANA

CITY           SKY/WX    TMP DP  RH WIND       PRES   REMARKS
HAVRE          MOCLDY    74  53  48 E10       29.68R
LEWISTOWN      CLOUDY    78  41  26 SW7       29.79F
N BAR RANCH      N/A     77  36  22 SW13      29.85F
CHINOOK          N/A     73  52  46 SE8       29.68F
FORT BENTON      N/A    N/A N/A N/A MISG      29.73R
$$

MTZ017>020-022>027-061-062-270400-
NORTHEAST MONTANA

CITY           SKY/WX    TMP DP  RH WIND       PRES   REMARKS
GLASGOW        CLOUDY    79  33  19 SE13      29.73F
JORDAN           N/A     83  32  16 SE12      29.75F
SIDNEY         MOCLDY    75  39  27 S9        29.84F
WOLF POINT     MOCLDY    79  37  22 SE3       29.77F
MALTA          CLOUDY    75  52  43 NW18G31   29.80R
PLENTYWOOD       N/A     72  43  35 SE10      29.83F
POPLAR           N/A     75  39  27 E8        29.79F
$$

MTZ028>42-056>058-270400-
SOUTHCENTRAL AND SOUTHEAST MONTANA

CITY           SKY/WX    TMP DP  RH WIND       PRES   REMARKS
BAKER          PTCLDY    74  36  25 SE21      29.91F
BILLINGS       PTCLDY    84  44  24 SE7       29.80F
LIVINGSTON     CLOUDY    82  36  19 SW16      29.83F
MILES CITY     CLOUDY    81  37  20 SE15G24   29.79F
BIG TIMBER     CLEAR     79  36  21 W6G14     29.86F
FORSYTH          N/A     81  37  21 SE3       29.77F
ROUNDUP          N/A     84  39  20 SE7       29.72S
$$

REGIONAL REPORTS...DAKOTAS

CITY           SKY/WX    TMP DP  RH WIND       PRES   REMARKS
WILLISTON      CLOUDY    75  40  28 SE10      29.86F
MINOT          CLEAR     66  42  41 E9        29.94F
DICKINSON      PTCLDY    65  35  33 SE13      29.93F
BEACH            N/A     70  39  32 SE14      29.93F
CROSBY           N/A     64  46  52 SE9       29.87F
TIOGA            N/A     66  41  39 SE14      29.91F
WATFORD CITY     N/A     70  39  32 SE10      29.88F
BISMARCK       CLEAR     62  45  53 SE9       30.01F
GRAND FORKS    PTCLDY    59  46  62 SW3       30.04S
FARGO          CLEAR     64  38  38 SW5       30.06F
BUFFALO SD       N/A     70  39  32 SE20      29.91F
RAPID CITY     CLEAR     69  39  33 SE16      30.01F
$$

REGIONAL REPORTS...WYOMING/IDAHO/WASHINGTON

CITY           SKY/WX    TMP DP  RH WIND       PRES   REMARKS
GILLETTE       CLEAR     75  41  29 SE17      29.95F
SHERIDAN       CLEAR     73  51  46 CALM      29.87F
BUFFALO WY     CLEAR     72  44  36 W8        29.96F
CODY           CLEAR     78  31  17 W6        29.92S
YELLOWSTONE LA   N/A     61  40  45 CALM      30.19F
IDAHO FALLS    CLOUDY    78  43  28 S12       29.94R
SALMON         CLOUDY    81  39  22 SW18G24   29.83F
BOISE          MOCLDY    80  52  37 NW5       29.81R
SPOKANE        TSTM      66  61  84 S20G38    29.81R
$$

REGIONAL REPORTS...ALBERTA

CITY           SKY/WX    TMP DP  RH WIND       PRES   REMARKS
EDMONTON       CLEAR     73  59  60 E7        29.49F
CALGARY        PTCLDY    77  41  27 SW17G32   29.65F
LETHBRIDGE     PTCLDY    73  52  46 SW9       29.68S
MEDICINE HAT   CLOUDY    79  50  36 W12G20    29.61S
WATERTON GATE    N/A     70  45  40 SW8         N/A
MILK RIVER       N/A     75  46  35 W15         N/A
$$

REGIONAL REPORTS...SASKATCHEWAN

CITY           SKY/WX    TMP DP  RH WIND       PRES   REMARKS
SWIFT CURRENT  CLEAR     70  46  43 SE16      29.67F
REGINA         PTCLDY    70  46  43 SE16G23   29.78F
SASKATOON      MOCLDY    73  50  43 SE20G28   29.68F
VAL MARIE        N/A     79  32  18 S18G24      N/A
ROCKGLEN         N/A     72  36  26 SE14        N/A
$$




USA.gov is the U.S. government's official web portal to all federal, state and local government web resources and services.